カタログに戻る

CENTISPACE-2 S2

運用中ナビゲーションLEO
NORAD 68351·PAYLOAD·🇨🇳 China

打ち上げ Mar 22, 2026 から Yellow Sea Launch Area

Loading…

次のパス (今後24時間)

TLE

最新Source: Space-Track

元期: Sep 14, 2026, 14:05 UTC

1 68351U 26060B   26257.58748982  .00000200  00000-0  15222-3 0  9997
2 68351  54.9814  48.8997 0009336 271.6845  88.3062 14.24931838 25686

AllMySatでCENTISPACE-2 S2をリアルタイム追跡

Download on the App Store